Regional Weather Roundup
Issued by NWS

Home | Current Version | Previous Version | Graphics & Text | Print | Product List | Glossary On
Versions: 1 2 3 4 5 6 7 8 9 10 11 12 13 14 15 16 17 18 19 20 21 22 23 24 25 26 27 28 29 30 31 32 33 34 35 36 37 38 39 40 41 42 43 44 45 46 47 48 49 50
000
ASUS43 KLOT 220809
RWRIL

ILLINOIS REGIONAL WEATHER ROUNDUP
NATIONAL WEATHER SERVICE CHICAGO/ROMEOVILLE IL
300 AM CDT SUN OCT 22 2017

NOTE: "FAIR" INDICATES FEW OR NO CLOUDS BELOW 12,000 FEET WITH NO
SIGNIFICANT WEATHER AND/OR OBSTRUCTIONS TO VISIBILITY.

* THESE STATIONS ARE NOT UNDER NWS QUALITY CONTROL. THEY ALSO MAY NOT
  REPORT WEATHER SUCH AS PRECIPITATION OR FOG.

ILZ001-002-007-009-015-016-024-220900-
NORTHWEST ILLINOIS

CITY           SKY/WX    TMP DP  RH WIND       PRES   REMARKS
MOLINE         CLOUDY    65  61  87 W8        29.87R
STERLING*      CLOUDY    69  59  70 SE7         N/A
SAVANNA*       LGT RAIN  65  61  87 CALM      29.87F
$$

ILZ003-004-008-010-011-017-018-220900-
NORTH CENTRAL ILLINOIS

CITY           SKY/WX    TMP DP  RH WIND       PRES   REMARKS
ROCKFORD       CLOUDY    67  57  70 S20       29.91F
FREEPORT*      CLOUDY    65  56  73 SE8       29.91R
ROCHELLE*      CLOUDY    67  58  72 S10G20    29.91F
DE KALB*       CLOUDY    67  58  71 S16G24    29.93F
PERU*          PTCLDY    65  56  73 S13       29.91F
$$

ILZ005-006-012>014-019>023-220900-
NORTHEAST ILLINOIS

CITY           SKY/WX    TMP DP  RH WIND       PRES   REMARKS
CHICAGO-OHARE  MOCLDY    67  54  63 S15       29.96F
CHICAGO-MIDWAY MOCLDY    67  55  65 S14       29.97F
AURORA         CLOUDY    66  56  70 S12       29.95F
LANSING*       MOCLDY    63  55  74 S12       30.00F
JOLIET*        CLOUDY    68  58  70 S12G17    29.96F
WAUKEGAN       CLOUDY    68  55  63 S15       29.95F
DUPAGE AIRPORT MOCLDY    66  57  72 S14G23    29.95F
KANKAKEE*      CLOUDY    67  56  67 S15G23    29.99F
WHEELING       CLOUDY    68  56  65 S14       29.98F
MORRIS*        MOCLDY    66  56  70 S13       29.94F
ROMEOVILLE*    CLOUDY    66  56  71 S15G22    29.96F
NORTHERLY ISL    N/A     66  52  60 SE9         N/A
$$

LMZ740>746-220900-
SOUTHERN LAKE MICHIGAN

STATION/POSITION SKY/WX   TEMP    WIND        PRES    VSBY  WAVE
                          AIR SEA DIR/SP/G                  HT/PER
                          (F)     (DEG/KT/KT) (MB)    (MI)  (FT/S)
SOUTHERN BUOY              63 61  140/ 17/ 21 1015.4F         4/ 5
WILMETTE HARBOR            65 59  180/ 14/ 21   N/A           3/ 4
HARRISON CRIB              65     180/ 18/ 19   N/A
BURNHAM HARBOR             66     160/  8/ 14   N/A
CALUMET HARBOR             65     160/  8/ 13 1014.8F
BURNS HARBOR               65     170/ 12/ 21 1016.6F
MICHIGAN CITY              65     150/ 13/ 15   N/A
MICHIGAN CITY 6N           63 58  180/ 14/ 19   N/A           2/ 2
ST. JOSEPH                 64 59  180/ 16/ 19 1016.9          2/ 3
$$

ILZ025>027-034>036-040-047-049-050-058-095>099-220900-
WEST-CENTRAL ILLINOIS

CITY           SKY/WX    TMP DP  RH WIND       PRES   REMARKS
QUINCY         CLOUDY    68  61  78 SE12      29.83F
MACOMB*        HVY RAIN  66  62  86 S14G20    29.86F
JACKSONVILLE*  MOCLDY    68  60  76 SE15G25   29.88F
PITTSFIELD*    CLOUDY    70  62  77 SE14G20   29.86F
$$

ILZ028>032-037-038-041>044-048-051>054-059>061-220900-
CENTRAL ILLINOIS

CITY           SKY/WX    TMP DP  RH WIND       PRES   REMARKS
PONTIAC        PTCLDY    65  60  82 S18       29.95F
BLOOMINGTON    CLEAR     64  58  80 S18       29.95F
DECATUR        PTCLDY    66  58  75 S15       29.97F
PEORIA         MOCLDY    68  59  73 S18G29    29.90F
LACON*         PTCLDY    67  58  73 S13G18    29.89F
LINCOLN*       PTCLDY    67  60  79 S14G20    29.92F
SPRINGFIELD    MOCLDY    70  61  73 S16G26    29.91F
TAYLORVILLE    MOCLDY    66  59  77 S15G23    29.95F
$$

ILZ033-039-045-046-055>057-062-063-220900-
EAST-CENTRAL ILLINOIS

CITY           SKY/WX    TMP DP  RH WIND       PRES   REMARKS
CHAMPAIGN      PTCLDY    67  57  70 S18       29.99F
DANVILLE*      CLOUDY    65  54  67 S13       30.00F
RANTOUL*       PTCLDY    65  58  78 S12       29.99F
MATTOON        PTCLDY    64  58  80 SE13      30.00F
PARIS*         CLOUDY    63  55  77 SE12      30.05F
$$

ILZ079-100>102-220900-
SOUTHWEST ILLINOIS

CITY           SKY/WX    TMP DP  RH WIND       PRES   REMARKS
ALTON          CLOUDY    68  63  83 SE13G20   29.91F
BELLEVILLE     PTCLDY    69  59  69 SE12      29.95F
CAHOKIA*       CLOUDY    71  61  70 S14G23    29.90F
SPARTA*        CLOUDY    69  60  74 S10G17    29.97F
$$

ILZ064>066-069>071-074>076-080>082-084>086-088>090-092>094-220900-
SOUTH-CENTRAL ILLINOIS

CITY           SKY/WX    TMP DP  RH WIND       PRES   REMARKS
CARBONDALE     CLOUDY    68  61  78 SE10      29.98F
CAIRO*         MOCLDY    68  61  78 SE13      30.01F
EFFINGHAM*     CLOUDY    66  59  80 SE10      30.02F
MARION         CLOUDY    70  61  73 S12G18    30.01F
MT. VERNON     MOCLDY    67  60  78 S6        30.01F
CENTRALIA*     MOCLDY    67  61  81 SE12      29.98F
SALEM*         CLOUDY    67  60  77 SE7       29.99F
METROPOLIS*    CLOUDY    69  61  74 S10G18    30.03F
$$

ILZ067-068-072-073-078-083-087-091-220900-
SOUTHEAST ILLINOIS

CITY           SKY/WX    TMP DP  RH WIND       PRES   REMARKS
LAWRENCEVILLE  CLOUDY    64  55  72 SE13      30.07F
FLORA*         CLOUDY    67  60  77 SE9       30.02F
FAIRFIELD*     CLOUDY    67  59  77 SE6       30.02F
HARRISBURG*    CLOUDY    69  61  75 S12       30.04S
ROBINSON*      CLOUDY    62  55  79 SE8       30.07F
CARMI*         MOCLDY    64  58  83 SE8       30.04F
$$

ABBREVIATIONS USED IN REMARKS
   TC - TEMPERATURE IN CELSIUS
  WCI - WIND CHILL INDEX
   HX - HEAT INDEX
  VSB - VISIBILITY
$$





USA.gov is the U.S. government's official web portal to all federal, state and local government web resources and services.